This is the latest recevied weather packets stored in our database for station/object IU1DOF-3. If no packets are shown the sender has not sent any weather packets the latest 10 day(s).
| Time | Temp. | Humidity | Pressure | Rain* | Wind** | Luminosity | Snow |
|---|---|---|---|---|---|---|---|
| 1777991932 | 11.11° C | 89% | 1010.8 hPa | 0 mm | - | - | - |
| 1777991321 | 11.11° C | 88% | 1010.8 hPa | 0 mm | - | - | - |
| 1777990700 | 11.67° C | 88% | 1010.8 hPa | 0 mm | - | - | - |
| 1777990077 | 11.67° C | 86% | 1010.6 hPa | 0 mm | - | - | - |
| 1777989460 | 12.22° C | 87% | 1010.7 hPa | 0 mm | - | - | - |
| 1777988843 | 11.67° C | 88% | 1010.7 hPa | 0 mm | - | - | - |
| 1777988219 | 11.67° C | 87% | 1010.8 hPa | 0 mm | - | - | - |
| 1777987600 | 12.22° C | 87% | 1011.1 hPa | 0 mm | - | - | - |
| 1777986988 | 12.22° C | 89% | 1011.2 hPa | 0 mm | - | - | - |
| 1777986379 | 12.78° C | 86% | 1010.9 hPa | 0 mm | - | - | - |
| 1777985757 | 12.22° C | 87% | 1011 hPa | 0 mm | - | - | - |
| 1777985132 | 12.22° C | 86% | 1011.1 hPa | 0 mm | - | - | - |
| 1777984524 | 12.22° C | 86% | 1011 hPa | 0 mm | - | - | - |
| 1777983916 | 11.67° C | 88% | 1011.3 hPa | 0 mm | - | - | - |
| 1777983307 | 11.67° C | 86% | 1011.2 hPa | 0 mm | - | - | - |
| 1777982700 | 11.67° C | 84% | 1011.2 hPa | 0 mm | - | - | - |
| 1777982682 | 12.22° C | 84% | 1011.3 hPa | 0 mm | - | - | - |
| 1777982673 | 12.22° C | 85% | 1011.4 hPa | 0 mm | - | - | - |
| 1777981524 | 12.22° C | 82% | 1011.3 hPa | 0 mm | - | - | - |
| 1777977116 | 11.67° C | 82% | 1011.5 hPa | 0 mm | - | - | - |
| 1777976493 | 11.67° C | 80% | 1011.8 hPa | 0 mm | - | - | - |
| 1777976485 | 11.67° C | 80% | 1011.8 hPa | 0 mm | - | - | - |
| 1777975841 | 11.67° C | 84% | 1011.6 hPa | 0 mm | - | - | - |
| 1777975228 | 11.67° C | 87% | 1011.7 hPa | 0 mm | - | - | - |
| 1777974604 | 10.56° C | 86% | 1011.7 hPa | 0 mm | - | - | - |
* Rain latest hour (hover to see other rain measurements)
** Current wind speed in m/s (hover to see current wind gust speed)